Flag for U.S.A. Weather past 2 weeks in Key West, Florida, U.S.A.

Now
74 °F

Rain. Overcast.


Feels Like: 71 °F
Forecast: 82 / 87 °F
Wind: No wind

Location: Key West International Airport

Current Time: Sep 23, 2014 at 8:44:46 AM

Latest Report: Sep 23, 2014 at 7:53 AM


Visibility: 8 mi

Pressure: 29.99 "Hg

Humidity: 94%

Dew point: 72 °F

Location of Key WestLocation

Historic Weather in Key West — Graph

°F

Key West temperature yesterday

Maximum temperature yesterday: 87 °F (at 10:53 AM)
Minimum temperature yesterday: 82 °F (at 11:53 PM)
Average temperature yesterday: 84 °F

Past Weeks' High & Low Weather Summary

 TemperatureHumidityPressure
High90 °F (Sep 17, 4:53 PM)94% (Sep 23, 6:53 AM)30.14 "Hg (Sep 23, 6:53 AM)
Low74 °F (Sep 23, 6:53 AM)59% (Sep 17, 4:53 PM)29.89 "Hg (Sep 20, 3:53 PM)
Average83 °F74%29.99 "Hg
* Reported Sep 8 6:53 AM — Sep 23 6:53 AM, Key West, Weather by CustomWeather, © 2014

Note: Actual official high and low records may vary slightly from our data, if they occured in-between our weather recording intervals... More about our weather records

Advertising

Key West weather history for previous 24 hours

 ConditionsComfort  
Time TempWeatherWind HumidityBarometerVisibility
6:53 AM
Sep 23
74 °FThundershowers. Fog.No wind94%29.98 "Hg4 mi
5:53 AM76 °FOvercast.20 mph85%29.97 "Hg10 mi
4:53 AM81 °FClear.5 mph85%29.94 "Hg10 mi
3:53 AM81 °FClear.5 mph85%29.93 "Hg10 mi
2:53 AM82 °FClear.7 mph79%29.93 "Hg10 mi
1:53 AM82 °FClear.6 mph82%29.98 "Hg10 mi
12:53 AM83 °FClear.6 mph79%29.99 "Hg10 mi
11:53 PM
Sep 22
82 °FClear.5 mph79%30.00 "Hg10 mi
10:53 PM83 °FClear.6 mph72%29.98 "Hg10 mi
9:53 PM83 °FClear.6 mph74%29.99 "Hg10 mi
8:53 PM83 °FClear.7 mph77%29.98 "Hg10 mi
7:53 PM84 °FPassing clouds.8 mph72%29.98 "Hg10 mi
6:53 PM86 °FSunny.5 mph67%29.96 "Hg10 mi
5:53 PM86 °FSunny.6 mph63%29.93 "Hg10 mi
4:53 PM84 °FPassing clouds.9 mph72%29.93 "Hg10 mi
3:53 PM85 °FSunny.6 mph75%29.94 "Hg10 mi
2:53 PM84 °FPassing clouds.6 mph72%29.96 "Hg10 mi
2:01 PM83 °FThunderstorms. Passing clouds.15 mph68%30.01 "Hg10 mi
12:53 PM87 °FSunny.14 mph69%30.02 "Hg10 mi
11:53 AM87 °FPassing clouds.12 mph69%30.04 "Hg10 mi
10:53 AM87 °FPassing clouds.9 mph72%30.03 "Hg10 mi
9:53 AM86 °FScattered clouds.No wind72%30.05 "Hg10 mi
8:53 AM86 °FSunny.No wind75%30.04 "Hg10 mi
Weather by CustomWeather, © 2014

See weather overviewHow to use our weather pages